Gauley at Summersville (cfs) [ USA-WVR ]

Edit Gauge

Current Conditions

Reading of "n/a" = frozen gauge or gauge error.
Reading Trend Type Updated
229 cfs 0 cfs/hr Flow 00h43m

Station Description

AW Gauge ID: 8515
Source: virtual
Station: 8515
Enabled yes
Description:StreamTeam Member: Matt Muir The virtual Gauley gauge is based on the rating table published by the USGS in Oct 2003. Funding to update the rating table is no longer available. Discharge values calculated by this virtual gauge are thus calculated based on channel bed morphology as of 2003.
Calculation:$g = $gauge[1434]->getValue(GMETRIC_STAGE,0); if ($g >= 8.9) { $x=(-0.0344*pow($g,5))+(2.6808*pow($g,4))-(77.748*pow($g,3))+(1150.7*pow($g,2))-(7873.3*$g)+19890; } elseif ($g >= 7.0) { $x=(69.822*pow($g,2))-(656.23*$g)+1354.5; } elseif ($g >= 6.5) { $x=(171.43*pow($g,2))-(2104.1*$g)+6474; } else { $x=40; } $flow = $x;
Data is courtesy of AW's Stream Team program. This data is calculated based on other gauges and information provided by the Stream Team. This data, and any river data, should be used with caution.

Information

Flow

Gauge History

Times listed in GMT 24h, ET and PT hours provided for convenience Graphs in GMT. Readings of "n/a" constitute a frozen gauge or gauge error.
Reading Updated (GMT) Eastern Pacific Comment
228.51 07/26/2014 12:26:40 Jul 26 08:26 am Jul 26 5:26 am
228.51 07/26/2014 11:26:56 Jul 26 07:26 am Jul 26 4:26 am
231.93 07/26/2014 10:27:12 Jul 26 06:27 am Jul 26 3:27 am
228.51 07/26/2014 09:27:28 Jul 26 05:27 am Jul 26 2:27 am
228.51 07/26/2014 08:27:44 Jul 26 04:27 am Jul 26 1:27 am
228.51 07/26/2014 07:25:52 Jul 26 03:25 am Jul 26 12:25 am
231.93 07/26/2014 06:26:08 Jul 26 02:26 am Jul 25 11:26 pm
228.51 07/26/2014 05:26:24 Jul 26 01:26 am Jul 25 10:26 pm
228.51 07/26/2014 04:26:40 Jul 26 12:26 am Jul 25 9:26 pm
231.93 07/26/2014 03:26:56 Jul 25 11:26 pm Jul 25 8:26 pm
231.93 07/26/2014 02:27:12 Jul 25 10:27 pm Jul 25 7:27 pm
228.51 07/26/2014 01:27:28 Jul 25 09:27 pm Jul 25 6:27 pm
231.93 07/25/2014 23:25:52 Jul 25 07:25 pm Jul 25 4:25 pm
231.93 07/25/2014 22:26:08 Jul 25 06:26 pm Jul 25 3:26 pm
228.51 07/25/2014 21:26:24 Jul 25 05:26 pm Jul 25 2:26 pm
228.51 07/25/2014 20:26:40 Jul 25 04:26 pm Jul 25 1:26 pm
228.51 07/25/2014 19:26:56 Jul 25 03:26 pm Jul 25 12:26 pm
228.51 07/25/2014 18:27:12 Jul 25 02:27 pm Jul 25 11:27 am
231.93 07/25/2014 17:27:28 Jul 25 01:27 pm Jul 25 10:27 am
228.51 07/25/2014 16:27:44 Jul 25 12:27 pm Jul 25 9:27 am
231.93 07/25/2014 15:25:52 Jul 25 11:25 am Jul 25 8:25 am
228.51 07/25/2014 14:26:08 Jul 25 10:26 am Jul 25 7:26 am
228.51 07/25/2014 13:26:24 Jul 25 09:26 am Jul 25 6:26 am
228.51 07/25/2014 12:26:40 Jul 25 08:26 am Jul 25 5:26 am
228.51 07/25/2014 11:26:56 Jul 25 07:26 am Jul 25 4:26 am
228.51 07/25/2014 10:27:12 Jul 25 06:27 am Jul 25 3:27 am
228.51 07/25/2014 09:27:28 Jul 25 05:27 am Jul 25 2:27 am
231.93 07/25/2014 08:27:44 Jul 25 04:27 am Jul 25 1:27 am
231.93 07/25/2014 07:25:52 Jul 25 03:25 am Jul 25 12:25 am
228.51 07/25/2014 06:26:08 Jul 25 02:26 am Jul 24 11:26 pm
228.51 07/25/2014 05:26:24 Jul 25 01:26 am Jul 24 10:26 pm
228.51 07/25/2014 04:26:40 Jul 25 12:26 am Jul 24 9:26 pm
228.51 07/25/2014 02:27:12 Jul 24 10:27 pm Jul 24 7:27 pm
228.51 07/24/2014 23:25:52 Jul 24 07:25 pm Jul 24 4:25 pm
231.93 07/24/2014 22:26:08 Jul 24 06:26 pm Jul 24 3:26 pm
228.51 07/24/2014 21:26:24 Jul 24 05:26 pm Jul 24 2:26 pm
228.51 07/24/2014 20:26:40 Jul 24 04:26 pm Jul 24 1:26 pm
228.51 07/24/2014 19:26:56 Jul 24 03:26 pm Jul 24 12:26 pm
225.11 07/24/2014 18:27:12 Jul 24 02:27 pm Jul 24 11:27 am
228.51 07/24/2014 17:27:28 Jul 24 01:27 pm Jul 24 10:27 am
228.51 07/24/2014 16:27:44 Jul 24 12:27 pm Jul 24 9:27 am
228.51 07/24/2014 15:25:52 Jul 24 11:25 am Jul 24 8:25 am
228.51 07/24/2014 14:26:08 Jul 24 10:26 am Jul 24 7:26 am
231.93 07/24/2014 13:26:24 Jul 24 09:26 am Jul 24 6:26 am
104.84 07/24/2014 12:26:40 Jul 24 08:26 am Jul 24 5:26 am
90.79 07/24/2014 11:26:56 Jul 24 07:26 am Jul 24 4:26 am
90.79 07/24/2014 10:27:12 Jul 24 06:27 am Jul 24 3:27 am
90.79 07/24/2014 09:27:28 Jul 24 05:27 am Jul 24 2:27 am
90.79 07/24/2014 08:27:44 Jul 24 04:27 am Jul 24 1:27 am
90.79 07/24/2014 07:25:52 Jul 24 03:25 am Jul 24 12:25 am
90.79 07/24/2014 06:26:08 Jul 24 02:26 am Jul 23 11:26 pm
90.79 07/24/2014 05:26:24 Jul 24 01:26 am Jul 23 10:26 pm
93.04 07/24/2014 04:26:40 Jul 24 12:26 am Jul 23 9:26 pm
93.04 07/24/2014 01:27:28 Jul 23 09:27 pm Jul 23 6:27 pm
88.56 07/23/2014 23:25:52 Jul 23 07:25 pm Jul 23 4:25 pm
88.56 07/23/2014 22:26:08 Jul 23 06:26 pm Jul 23 3:26 pm
88.56 07/23/2014 21:26:24 Jul 23 05:26 pm Jul 23 2:26 pm
88.56 07/23/2014 20:26:40 Jul 23 04:26 pm Jul 23 1:26 pm
88.56 07/23/2014 19:26:56 Jul 23 03:26 pm Jul 23 12:26 pm
90.79 07/23/2014 18:27:12 Jul 23 02:27 pm Jul 23 11:27 am
90.79 07/23/2014 17:27:28 Jul 23 01:27 pm Jul 23 10:27 am
90.79 07/23/2014 16:27:44 Jul 23 12:27 pm Jul 23 9:27 am
90.79 07/23/2014 15:25:52 Jul 23 11:25 am Jul 23 8:25 am
90.79 07/23/2014 14:26:08 Jul 23 10:26 am Jul 23 7:26 am
93.04 07/23/2014 13:26:24 Jul 23 09:26 am Jul 23 6:26 am
88.56 07/23/2014 12:26:40 Jul 23 08:26 am Jul 23 5:26 am
88.56 07/23/2014 11:26:56 Jul 23 07:26 am Jul 23 4:26 am
88.56 07/23/2014 10:27:12 Jul 23 06:27 am Jul 23 3:27 am
90.79 07/23/2014 09:27:28 Jul 23 05:27 am Jul 23 2:27 am
88.56 07/23/2014 08:27:44 Jul 23 04:27 am Jul 23 1:27 am
88.56 07/23/2014 07:25:52 Jul 23 03:25 am Jul 23 12:25 am
90.79 07/23/2014 06:26:08 Jul 23 02:26 am Jul 22 11:26 pm
88.56 07/23/2014 05:26:24 Jul 23 01:26 am Jul 22 10:26 pm
88.56 07/23/2014 04:26:40 Jul 23 12:26 am Jul 22 9:26 pm
88.56 07/23/2014 03:26:56 Jul 22 11:26 pm Jul 22 8:26 pm
88.56 07/23/2014 02:27:12 Jul 22 10:27 pm Jul 22 7:27 pm
88.56 07/22/2014 23:25:52 Jul 22 07:25 pm Jul 22 4:25 pm
88.56 07/22/2014 22:26:08 Jul 22 06:26 pm Jul 22 3:26 pm
88.56 07/22/2014 21:26:24 Jul 22 05:26 pm Jul 22 2:26 pm
88.56 07/22/2014 20:26:40 Jul 22 04:26 pm Jul 22 1:26 pm
88.56 07/22/2014 19:26:56 Jul 22 03:26 pm Jul 22 12:26 pm
88.56 07/22/2014 18:27:12 Jul 22 02:27 pm Jul 22 11:27 am
88.56 07/22/2014 17:27:28 Jul 22 01:27 pm Jul 22 10:27 am
88.56 07/22/2014 16:27:44 Jul 22 12:27 pm Jul 22 9:27 am
88.56 07/22/2014 15:25:52 Jul 22 11:25 am Jul 22 8:25 am
88.56 07/22/2014 14:26:08 Jul 22 10:26 am Jul 22 7:26 am
90.79 07/22/2014 13:26:24 Jul 22 09:26 am Jul 22 6:26 am
88.56 07/22/2014 12:26:40 Jul 22 08:26 am Jul 22 5:26 am
88.56 07/22/2014 11:26:56 Jul 22 07:26 am Jul 22 4:26 am
88.56 07/22/2014 10:27:12 Jul 22 06:27 am Jul 22 3:27 am
88.56 07/22/2014 09:27:28 Jul 22 05:27 am Jul 22 2:27 am
88.56 07/22/2014 08:27:44 Jul 22 04:27 am Jul 22 1:27 am
88.56 07/22/2014 07:25:52 Jul 22 03:25 am Jul 22 12:25 am
88.56 07/22/2014 06:26:08 Jul 22 02:26 am Jul 21 11:26 pm
88.56 07/22/2014 05:26:24 Jul 22 01:26 am Jul 21 10:26 pm
88.56 07/22/2014 04:26:40 Jul 22 12:26 am Jul 21 9:26 pm
88.56 07/22/2014 03:26:56 Jul 21 11:26 pm Jul 21 8:26 pm
88.56 07/22/2014 01:27:28 Jul 21 09:27 pm Jul 21 6:27 pm
88.56 07/21/2014 23:25:52 Jul 21 07:25 pm Jul 21 4:25 pm
88.56 07/21/2014 22:26:08 Jul 21 06:26 pm Jul 21 3:26 pm
88.56 07/21/2014 21:26:24 Jul 21 05:26 pm Jul 21 2:26 pm
88.56 07/21/2014 20:26:40 Jul 21 04:26 pm Jul 21 1:26 pm
88.56 07/21/2014 19:26:56 Jul 21 03:26 pm Jul 21 12:26 pm
88.56 07/21/2014 18:27:12 Jul 21 02:27 pm Jul 21 11:27 am
90.79 07/21/2014 17:27:28 Jul 21 01:27 pm Jul 21 10:27 am
88.56 07/21/2014 16:27:44 Jul 21 12:27 pm Jul 21 9:27 am
90.79 07/21/2014 15:25:52 Jul 21 11:25 am Jul 21 8:25 am
88.56 07/21/2014 14:26:08 Jul 21 10:26 am Jul 21 7:26 am
88.56 07/21/2014 13:26:24 Jul 21 09:26 am Jul 21 6:26 am
88.56 07/21/2014 12:26:40 Jul 21 08:26 am Jul 21 5:26 am
88.56 07/21/2014 11:26:56 Jul 21 07:26 am Jul 21 4:26 am
88.56 07/21/2014 10:27:12 Jul 21 06:27 am Jul 21 3:27 am
88.56 07/21/2014 09:27:28 Jul 21 05:27 am Jul 21 2:27 am
88.56 07/21/2014 08:27:44 Jul 21 04:27 am Jul 21 1:27 am
88.56 07/21/2014 07:25:52 Jul 21 03:25 am Jul 21 12:25 am
88.56 07/21/2014 06:26:08 Jul 21 02:26 am Jul 20 11:26 pm
88.56 07/21/2014 05:26:24 Jul 21 01:26 am Jul 20 10:26 pm
88.56 07/21/2014 04:26:40 Jul 21 12:26 am Jul 20 9:26 pm
90.79 07/21/2014 00:27:44 Jul 20 08:27 pm Jul 20 5:27 pm
93.04 07/20/2014 23:25:52 Jul 20 07:25 pm Jul 20 4:25 pm
136.65 07/20/2014 22:26:08 Jul 20 06:26 pm Jul 20 3:26 pm
136.65 07/20/2014 21:26:24 Jul 20 05:26 pm Jul 20 2:26 pm
136.65 07/20/2014 20:26:40 Jul 20 04:26 pm Jul 20 1:26 pm
133.81 07/20/2014 19:26:56 Jul 20 03:26 pm Jul 20 12:26 pm
136.65 07/20/2014 18:27:12 Jul 20 02:27 pm Jul 20 11:27 am
136.65 07/20/2014 17:27:28 Jul 20 01:27 pm Jul 20 10:27 am
136.65 07/20/2014 16:27:44 Jul 20 12:27 pm Jul 20 9:27 am
136.65 07/20/2014 15:25:52 Jul 20 11:25 am Jul 20 8:25 am
136.65 07/20/2014 14:26:08 Jul 20 10:26 am Jul 20 7:26 am
136.65 07/20/2014 13:26:24 Jul 20 09:26 am Jul 20 6:26 am
136.65 07/20/2014 12:26:40 Jul 20 08:26 am Jul 20 5:26 am
133.81 07/20/2014 11:26:56 Jul 20 07:26 am Jul 20 4:26 am
133.81 07/20/2014 10:27:12 Jul 20 06:27 am Jul 20 3:27 am
133.81 07/20/2014 09:27:28 Jul 20 05:27 am Jul 20 2:27 am
133.81 07/20/2014 08:27:44 Jul 20 04:27 am Jul 20 1:27 am
136.65 07/20/2014 07:25:52 Jul 20 03:25 am Jul 20 12:25 am
136.65 07/20/2014 06:26:08 Jul 20 02:26 am Jul 19 11:26 pm
136.65 07/20/2014 05:26:24 Jul 20 01:26 am Jul 19 10:26 pm
133.81 07/19/2014 05:26:24 Jul 19 01:26 am Jul 18 10:26 pm
136.65 07/19/2014 04:26:40 Jul 19 12:26 am Jul 18 9:26 pm
133.81 07/19/2014 03:26:56 Jul 18 11:26 pm Jul 18 8:26 pm
136.65 07/19/2014 02:27:12 Jul 18 10:27 pm Jul 18 7:27 pm
136.65 07/19/2014 00:27:44 Jul 18 08:27 pm Jul 18 5:27 pm
133.81 07/18/2014 23:25:52 Jul 18 07:25 pm Jul 18 4:25 pm
136.65 07/18/2014 22:26:08 Jul 18 06:26 pm Jul 18 3:26 pm
133.81 07/18/2014 21:26:24 Jul 18 05:26 pm Jul 18 2:26 pm
136.65 07/18/2014 20:26:40 Jul 18 04:26 pm Jul 18 1:26 pm
136.65 07/18/2014 19:26:56 Jul 18 03:26 pm Jul 18 12:26 pm
182.17 07/18/2014 18:27:12 Jul 18 02:27 pm Jul 18 11:27 am
235.36 07/18/2014 16:27:44 Jul 18 12:27 pm Jul 18 9:27 am
235.36 07/18/2014 15:25:52 Jul 18 11:25 am Jul 18 8:25 am
231.93 07/18/2014 14:26:08 Jul 18 10:26 am Jul 18 7:26 am
231.93 07/18/2014 13:26:24 Jul 18 09:26 am Jul 18 6:26 am
231.93 07/18/2014 12:26:40 Jul 18 08:26 am Jul 18 5:26 am
231.93 07/18/2014 11:26:56 Jul 18 07:26 am Jul 18 4:26 am
231.93 07/18/2014 10:27:12 Jul 18 06:27 am Jul 18 3:27 am
231.93 07/18/2014 09:27:28 Jul 18 05:27 am Jul 18 2:27 am
231.93 07/18/2014 07:25:52 Jul 18 03:25 am Jul 18 12:25 am
231.93 07/18/2014 06:26:08 Jul 18 02:26 am Jul 17 11:26 pm
231.93 07/18/2014 05:26:24 Jul 18 01:26 am Jul 17 10:26 pm
231.93 07/18/2014 04:26:40 Jul 18 12:26 am Jul 17 9:26 pm
231.93 07/18/2014 03:26:56 Jul 17 11:26 pm Jul 17 8:26 pm
231.93 07/18/2014 01:27:28 Jul 17 09:27 pm Jul 17 6:27 pm
231.93 07/17/2014 23:25:52 Jul 17 07:25 pm Jul 17 4:25 pm
231.93 07/17/2014 22:26:08 Jul 17 06:26 pm Jul 17 3:26 pm
231.93 07/17/2014 21:26:24 Jul 17 05:26 pm Jul 17 2:26 pm
231.93 07/17/2014 20:26:40 Jul 17 04:26 pm Jul 17 1:26 pm
231.93 07/17/2014 19:26:56 Jul 17 03:26 pm Jul 17 12:26 pm
231.93 07/17/2014 18:27:12 Jul 17 02:27 pm Jul 17 11:27 am
231.93 07/17/2014 17:27:28 Jul 17 01:27 pm Jul 17 10:27 am
231.93 07/17/2014 16:27:44 Jul 17 12:27 pm Jul 17 9:27 am
231.93 07/17/2014 15:25:52 Jul 17 11:25 am Jul 17 8:25 am
231.93 07/17/2014 14:26:08 Jul 17 10:26 am Jul 17 7:26 am
235.36 07/17/2014 13:26:24 Jul 17 09:26 am Jul 17 6:26 am
231.93 07/17/2014 12:26:40 Jul 17 08:26 am Jul 17 5:26 am
231.93 07/17/2014 11:26:56 Jul 17 07:26 am Jul 17 4:26 am
231.93 07/17/2014 10:27:12 Jul 17 06:27 am Jul 17 3:27 am
231.93 07/17/2014 09:27:28 Jul 17 05:27 am Jul 17 2:27 am
231.93 07/17/2014 08:27:44 Jul 17 04:27 am Jul 17 1:27 am
231.93 07/17/2014 07:25:52 Jul 17 03:25 am Jul 17 12:25 am
231.93 07/17/2014 06:26:08 Jul 17 02:26 am Jul 16 11:26 pm
231.93 07/17/2014 05:26:24 Jul 17 01:26 am Jul 16 10:26 pm
231.93 07/17/2014 04:26:40 Jul 17 12:26 am Jul 16 9:26 pm
231.93 07/17/2014 03:26:56 Jul 16 11:26 pm Jul 16 8:26 pm
231.93 07/17/2014 02:27:12 Jul 16 10:27 pm Jul 16 7:27 pm
231.93 07/16/2014 23:25:52 Jul 16 07:25 pm Jul 16 4:25 pm
231.93 07/16/2014 22:26:08 Jul 16 06:26 pm Jul 16 3:26 pm
235.36 07/16/2014 21:26:24 Jul 16 05:26 pm Jul 16 2:26 pm
235.36 07/16/2014 20:26:40 Jul 16 04:26 pm Jul 16 1:26 pm
231.93 07/16/2014 19:26:56 Jul 16 03:26 pm Jul 16 12:26 pm
231.93 07/16/2014 18:27:12 Jul 16 02:27 pm Jul 16 11:27 am
228.51 07/16/2014 17:27:28 Jul 16 01:27 pm Jul 16 10:27 am
231.93 07/16/2014 16:27:44 Jul 16 12:27 pm Jul 16 9:27 am
231.93 07/16/2014 15:25:52 Jul 16 11:25 am Jul 16 8:25 am
231.93 07/16/2014 14:26:08 Jul 16 10:26 am Jul 16 7:26 am
231.93 07/16/2014 13:26:24 Jul 16 09:26 am Jul 16 6:26 am
231.93 07/16/2014 12:26:40 Jul 16 08:26 am Jul 16 5:26 am
231.93 07/16/2014 11:26:56 Jul 16 07:26 am Jul 16 4:26 am
235.36 07/16/2014 10:27:12 Jul 16 06:27 am Jul 16 3:27 am
231.93 07/16/2014 09:27:28 Jul 16 05:27 am Jul 16 2:27 am
231.93 07/16/2014 08:27:44 Jul 16 04:27 am Jul 16 1:27 am
231.93 07/16/2014 07:25:52 Jul 16 03:25 am Jul 16 12:25 am
231.93 07/16/2014 06:26:08 Jul 16 02:26 am Jul 15 11:26 pm
231.93 07/16/2014 05:26:24 Jul 16 01:26 am Jul 15 10:26 pm
231.93 07/16/2014 04:26:40 Jul 16 12:26 am Jul 15 9:26 pm
231.93 07/16/2014 01:27:28 Jul 15 09:27 pm Jul 15 6:27 pm
231.93 07/15/2014 23:25:52 Jul 15 07:25 pm Jul 15 4:25 pm
231.93 07/15/2014 22:26:08 Jul 15 06:26 pm Jul 15 3:26 pm
231.93 07/15/2014 21:26:24 Jul 15 05:26 pm Jul 15 2:26 pm
231.93 07/15/2014 20:26:40 Jul 15 04:26 pm Jul 15 1:26 pm
231.93 07/15/2014 19:26:56 Jul 15 03:26 pm Jul 15 12:26 pm
231.93 07/15/2014 18:27:12 Jul 15 02:27 pm Jul 15 11:27 am
231.93 07/15/2014 17:27:28 Jul 15 01:27 pm Jul 15 10:27 am
231.93 07/15/2014 16:27:44 Jul 15 12:27 pm Jul 15 9:27 am
231.93 07/15/2014 15:25:52 Jul 15 11:25 am Jul 15 8:25 am
231.93 07/15/2014 14:26:08 Jul 15 10:26 am Jul 15 7:26 am
228.51 07/15/2014 12:26:40 Jul 15 08:26 am Jul 15 5:26 am
231.93 07/15/2014 11:26:56 Jul 15 07:26 am Jul 15 4:26 am
228.51 07/15/2014 10:27:12 Jul 15 06:27 am Jul 15 3:27 am
231.93 07/15/2014 09:27:28 Jul 15 05:27 am Jul 15 2:27 am
231.93 07/15/2014 08:27:44 Jul 15 04:27 am Jul 15 1:27 am
231.93 07/15/2014 07:25:52 Jul 15 03:25 am Jul 15 12:25 am
231.93 07/15/2014 06:26:08 Jul 15 02:26 am Jul 14 11:26 pm
228.51 07/15/2014 05:26:24 Jul 15 01:26 am Jul 14 10:26 pm
228.51 07/15/2014 04:26:40 Jul 15 12:26 am Jul 14 9:26 pm
228.51 07/15/2014 01:27:28 Jul 14 09:27 pm Jul 14 6:27 pm
231.93 07/14/2014 23:25:52 Jul 14 07:25 pm Jul 14 4:25 pm
228.51 07/14/2014 22:26:08 Jul 14 06:26 pm Jul 14 3:26 pm
231.93 07/14/2014 21:26:24 Jul 14 05:26 pm Jul 14 2:26 pm
231.93 07/14/2014 20:26:40 Jul 14 04:26 pm Jul 14 1:26 pm
231.93 07/14/2014 19:26:56 Jul 14 03:26 pm Jul 14 12:26 pm
231.93 07/14/2014 18:27:12 Jul 14 02:27 pm Jul 14 11:27 am
228.51 07/14/2014 16:27:44 Jul 14 12:27 pm Jul 14 9:27 am
228.51 07/14/2014 15:25:52 Jul 14 11:25 am Jul 14 8:25 am
231.93 07/14/2014 14:26:08 Jul 14 10:26 am Jul 14 7:26 am
231.93 07/14/2014 13:26:24 Jul 14 09:26 am Jul 14 6:26 am
231.93 07/14/2014 12:26:40 Jul 14 08:26 am Jul 14 5:26 am
228.51 07/14/2014 11:26:56 Jul 14 07:26 am Jul 14 4:26 am
228.51 07/14/2014 10:27:12 Jul 14 06:27 am Jul 14 3:27 am
231.93 07/14/2014 09:27:28 Jul 14 05:27 am Jul 14 2:27 am
231.93 07/14/2014 08:27:44 Jul 14 04:27 am Jul 14 1:27 am
228.51 07/14/2014 07:25:52 Jul 14 03:25 am Jul 14 12:25 am
228.51 07/14/2014 06:26:08 Jul 14 02:26 am Jul 13 11:26 pm
228.51 07/14/2014 05:26:24 Jul 14 01:26 am Jul 13 10:26 pm
228.51 07/14/2014 04:26:40 Jul 14 12:26 am Jul 13 9:26 pm
228.51 07/14/2014 01:27:28 Jul 13 09:27 pm Jul 13 6:27 pm
228.51 07/13/2014 23:25:52 Jul 13 07:25 pm Jul 13 4:25 pm
228.51 07/13/2014 22:26:08 Jul 13 06:26 pm Jul 13 3:26 pm
228.51 07/13/2014 21:26:24 Jul 13 05:26 pm Jul 13 2:26 pm
231.93 07/13/2014 20:26:40 Jul 13 04:26 pm Jul 13 1:26 pm
228.51 07/13/2014 19:26:56 Jul 13 03:26 pm Jul 13 12:26 pm
231.93 07/13/2014 18:27:12 Jul 13 02:27 pm Jul 13 11:27 am
228.51 07/13/2014 17:27:28 Jul 13 01:27 pm Jul 13 10:27 am
231.93 07/13/2014 16:27:44 Jul 13 12:27 pm Jul 13 9:27 am
228.51 07/13/2014 13:26:24 Jul 13 09:26 am Jul 13 6:26 am
228.51 07/13/2014 12:26:40 Jul 13 08:26 am Jul 13 5:26 am
228.51 07/13/2014 11:26:56 Jul 13 07:26 am Jul 13 4:26 am
228.51 07/13/2014 10:27:12 Jul 13 06:27 am Jul 13 3:27 am
231.93 07/13/2014 09:27:28 Jul 13 05:27 am Jul 13 2:27 am
228.51 07/13/2014 08:27:44 Jul 13 04:27 am Jul 13 1:27 am
228.51 07/13/2014 07:25:52 Jul 13 03:25 am Jul 13 12:25 am
228.51 07/13/2014 06:26:08 Jul 13 02:26 am Jul 12 11:26 pm
228.51 07/13/2014 05:26:24 Jul 13 01:26 am Jul 12 10:26 pm
228.51 07/13/2014 04:26:40 Jul 13 12:26 am Jul 12 9:26 pm
228.51 07/13/2014 01:27:28 Jul 12 09:27 pm Jul 12 6:27 pm
281.21 07/13/2014 00:27:44 Jul 12 08:27 pm Jul 12 5:27 pm
281.21 07/12/2014 23:25:52 Jul 12 07:25 pm Jul 12 4:25 pm
284.83 07/12/2014 22:26:08 Jul 12 06:26 pm Jul 12 3:26 pm
281.21 07/12/2014 21:26:24 Jul 12 05:26 pm Jul 12 2:26 pm
281.21 07/12/2014 20:26:40 Jul 12 04:26 pm Jul 12 1:26 pm
284.83 07/12/2014 19:26:56 Jul 12 03:26 pm Jul 12 12:26 pm
281.21 07/12/2014 18:27:12 Jul 12 02:27 pm Jul 12 11:27 am
284.83 07/12/2014 17:27:28 Jul 12 01:27 pm Jul 12 10:27 am
281.21 07/12/2014 16:27:44 Jul 12 12:27 pm Jul 12 9:27 am
284.83 07/12/2014 15:25:52 Jul 12 11:25 am Jul 12 8:25 am
284.83 07/12/2014 14:26:08 Jul 12 10:26 am Jul 12 7:26 am
281.21 07/12/2014 13:26:24 Jul 12 09:26 am Jul 12 6:26 am
284.83 07/12/2014 12:26:40 Jul 12 08:26 am Jul 12 5:26 am
281.21 07/12/2014 11:26:56 Jul 12 07:26 am Jul 12 4:26 am
281.21 07/12/2014 10:27:12 Jul 12 06:27 am Jul 12 3:27 am
281.21 07/12/2014 09:27:28 Jul 12 05:27 am Jul 12 2:27 am
281.21 07/12/2014 08:27:44 Jul 12 04:27 am Jul 12 1:27 am
281.21 07/12/2014 07:25:52 Jul 12 03:25 am Jul 12 12:25 am
284.83 07/12/2014 06:26:08 Jul 12 02:26 am Jul 11 11:26 pm
281.21 07/12/2014 05:26:24 Jul 12 01:26 am Jul 11 10:26 pm
281.21 07/12/2014 04:26:40 Jul 12 12:26 am Jul 11 9:26 pm
281.21 07/12/2014 03:26:56 Jul 11 11:26 pm Jul 11 8:26 pm
281.21 07/12/2014 02:27:12 Jul 11 10:27 pm Jul 11 7:27 pm
284.83 07/12/2014 00:27:44 Jul 11 08:27 pm Jul 11 5:27 pm
281.21 07/11/2014 23:25:52 Jul 11 07:25 pm Jul 11 4:25 pm
281.21 07/11/2014 22:26:08 Jul 11 06:26 pm Jul 11 3:26 pm
281.21 07/11/2014 21:26:24 Jul 11 05:26 pm Jul 11 2:26 pm
281.21 07/11/2014 20:26:40 Jul 11 04:26 pm Jul 11 1:26 pm
281.21 07/11/2014 19:26:56 Jul 11 03:26 pm Jul 11 12:26 pm
281.21 07/11/2014 18:27:12 Jul 11 02:27 pm Jul 11 11:27 am
281.21 07/11/2014 17:27:28 Jul 11 01:27 pm Jul 11 10:27 am
284.83 07/11/2014 16:27:44 Jul 11 12:27 pm Jul 11 9:27 am
281.21 07/11/2014 15:25:52 Jul 11 11:25 am Jul 11 8:25 am
281.21 07/11/2014 14:26:08 Jul 11 10:26 am Jul 11 7:26 am
284.83 07/11/2014 13:26:24 Jul 11 09:26 am Jul 11 6:26 am

Report - Reports of Related Gauges

Reports give the public a chance to report on river conditions throughout the country as well as log the history of a river.

Reports

When River/Gauge Subject Level Reporter
5y62d01h13m Gauley at Summersville (cfs) [WV] Account of 05/26/09 245 cfs Ryan Groth

Linked Reaches

Click a heading to sort. Hover over a heading for help.
River Name/Section Class Level running? Updated
Gauley [WV] 7 (Upper). Summersville Dam to Mason Branch IV-V 229 cfs
0 cfs/hr
L9-
Below Recom.
00h43m
Gauley [WV] 9 (Lower). Bucklick Branch to Swiss III-IV(V) 359 cfs
0 cfs/hr
L1-
Below Recom.
01h11m

Associated Gauges

Disclaimer Data Sources

GAULEY RIVER BELOW SUMMERSVILLE DAM, WV (AW#1434)

7.14 ft 00h41m